SWA3105 KGEG-KSAN

Flight info

Callsign SWA3105
Flight time 2h 21m
Altitude 37000
Route JELTI EVANT JENSA FRA HUULK COMIX2
Aircraft B737/M-SDE2E3FGHIRWXY/LB1

Departure

Time 2026-04-25 18:36
Airport Spokane International Airport (KGEG)

Arrival

Time 2026-04-25 20:58
Airport San Diego International Airport (KSAN)
Time Latitude Longitude Altitude Speed Heading
2026-04-25 18:20 47.62589 -117.53510 2388 ft 0 kts 218°
2026-04-25 18:27 47.62606 -117.53489 2388 ft 4 kts 225°
2026-04-25 18:27 47.62624 -117.53459 2395 ft 4 kts 237°
2026-04-25 18:27 47.62634 -117.53430 2396 ft 4 kts 259°
2026-04-25 18:28 47.62631 -117.53410 2388 ft 2 kts 275°
2026-04-25 18:28 47.62633 -117.53396 2394 ft 4 kts 346°
2026-04-25 18:28 47.62610 -117.53379 2396 ft 4 kts 316°
2026-04-25 18:29 47.62587 -117.53345 2388 ft 0 kts 316°
2026-04-25 18:30 47.62590 -117.53344 2388 ft 1 kts 353°
2026-04-25 18:31 47.62588 -117.53331 2391 ft 2 kts 132°
2026-04-25 18:31 47.62564 -117.53314 2388 ft 5 kts 151°
2026-04-25 18:31 47.62520 -117.53262 2393 ft 11 kts 136°
2026-04-25 18:31 47.62516 -117.53145 2389 ft 15 kts 46°
2026-04-25 18:32 47.62603 -117.53014 2390 ft 20 kts 45°
2026-04-25 18:32 47.62707 -117.52855 2388 ft 21 kts 46°
2026-04-25 18:32 47.62811 -117.52700 2392 ft 21 kts 45°
2026-04-25 18:32 47.62912 -117.52550 2394 ft 20 kts 46°
2026-04-25 18:33 47.63009 -117.52403 2388 ft 20 kts 45°
2026-04-25 18:33 47.63103 -117.52262 2391 ft 19 kts 45°
2026-04-25 18:33 47.63163 -117.52171 2388 ft 18 kts 45°
2026-04-25 18:33 47.63223 -117.52080 2390 ft 10 kts 53°
2026-04-25 18:34 47.63217 -117.51990 2391 ft 10 kts 131°
2026-04-25 18:34 47.63170 -117.51921 2394 ft 9 kts 135°
2026-04-25 18:34 47.63130 -117.51869 2391 ft 9 kts 149°
2026-04-25 18:35 47.63110 -117.51860 2388 ft 9 kts 177°
2026-04-25 18:35 47.63097 -117.51870 2391 ft 0 kts 230°
2026-04-25 18:35 47.63083 -117.51889 2389 ft 18 kts 223°
2026-04-25 18:36 47.62823 -117.52280 2393 ft 88 kts 225°
2026-04-25 18:36 47.62242 -117.53153 2392 ft 147 kts 225°
2026-04-25 18:36 47.61426 -117.54377 2608 ft 176 kts 225°
2026-04-25 18:36 47.60564 -117.55662 3449 ft 176 kts 221°
2026-04-25 18:37 47.59633 -117.56891 4045 ft 190 kts 220°
2026-04-25 18:37 47.58574 -117.58290 4304 ft 217 kts 221°
2026-04-25 18:37 47.57396 -117.59876 4612 ft 240 kts 220°
2026-04-25 18:37 47.56088 -117.61642 5004 ft 262 kts 220°
2026-04-25 18:38 47.54737 -117.63488 5934 ft 265 kts 222°
2026-04-25 18:38 47.53415 -117.65311 6942 ft 262 kts 222°
2026-04-25 18:38 47.52081 -117.67178 7820 ft 266 kts 223°
2026-04-25 18:38 47.50755 -117.69114 8638 ft 271 kts 225°
2026-04-25 18:39 47.49439 -117.71103 9573 ft 270 kts 226°
2026-04-25 18:39 47.48125 -117.73137 10302 ft 278 kts 226°
2026-04-25 18:39 47.46704 -117.75252 10549 ft 303 kts 224°
2026-04-25 18:39 47.45130 -117.77483 10773 ft 326 kts 224°
2026-04-25 18:40 47.43445 -117.79875 11106 ft 343 kts 224°
2026-04-25 18:40 47.41721 -117.82370 11712 ft 352 kts 225°
2026-04-25 18:40 47.39972 -117.84938 12421 ft 357 kts 225°
2026-04-25 18:40 47.38215 -117.87569 13146 ft 363 kts 223°
2026-04-25 18:41 47.36124 -117.89652 13989 ft 366 kts 206°
2026-04-25 18:41 47.33669 -117.90738 14658 ft 373 kts 189°
2026-04-25 18:41 47.31067 -117.91265 15279 ft 381 kts 188°
2026-04-25 18:41 47.28417 -117.91754 15970 ft 386 kts 187°
2026-04-25 18:42 47.25724 -117.92248 16614 ft 392 kts 188°
2026-04-25 18:42 47.23931 -117.92580 17086 ft 395 kts 188°
2026-04-25 18:42 47.20234 -117.93275 17915 ft 404 kts 188°
2026-04-25 18:42 47.17428 -117.93813 18504 ft 409 kts 188°
2026-04-25 18:43 47.14599 -117.94365 19159 ft 411 kts 188°
2026-04-25 18:43 47.11748 -117.94924 19749 ft 415 kts 188°
2026-04-25 18:43 47.08872 -117.95490 20345 ft 419 kts 187°
2026-04-25 18:43 47.06008 -117.96055 20923 ft 423 kts 187°
2026-04-25 18:44 47.03078 -117.96633 21477 ft 427 kts 187°
2026-04-25 18:44 47.00120 -117.97215 22036 ft 430 kts 187°
2026-04-25 18:44 46.97137 -117.97802 22592 ft 434 kts 187°
2026-04-25 18:44 46.94129 -117.98394 23130 ft 438 kts 187°
2026-04-25 18:45 46.91097 -117.98989 23637 ft 442 kts 187°
2026-04-25 18:45 46.88039 -117.99588 24080 ft 445 kts 187°
2026-04-25 18:45 46.84970 -118.00189 24567 ft 446 kts 187°
2026-04-25 18:45 46.81873 -118.00794 25008 ft 449 kts 186°
2026-04-25 18:46 46.78768 -118.01401 25430 ft 452 kts 186°
2026-04-25 18:46 46.75637 -118.02012 25850 ft 455 kts 186°
2026-04-25 18:46 46.72489 -118.02625 26261 ft 458 kts 186°
2026-04-25 18:46 46.69323 -118.03241 26673 ft 461 kts 186°
2026-04-25 18:47 46.66137 -118.03861 27055 ft 463 kts 186°
2026-04-25 18:47 46.62932 -118.04483 27463 ft 466 kts 186°
2026-04-25 18:47 46.59717 -118.05107 27881 ft 467 kts 186°
2026-04-25 18:47 46.56479 -118.05735 28243 ft 470 kts 186°
2026-04-25 18:48 46.53230 -118.06363 28593 ft 473 kts 186°
2026-04-25 18:48 46.49962 -118.06995 28916 ft 476 kts 186°
2026-04-25 18:48 46.46671 -118.07630 29250 ft 478 kts 186°
2026-04-25 18:48 46.43375 -118.08266 29725 ft 477 kts 186°
2026-04-25 18:49 46.40087 -118.08900 30253 ft 475 kts 186°
2026-04-25 18:49 46.36819 -118.09528 30718 ft 472 kts 186°
2026-04-25 18:49 46.33564 -118.10155 31109 ft 472 kts 186°
2026-04-25 18:49 46.30313 -118.10779 31445 ft 472 kts 186°
2026-04-25 18:50 46.27058 -118.11403 31795 ft 472 kts 186°
2026-04-25 18:50 46.23802 -118.12026 32187 ft 471 kts 187°
2026-04-25 18:50 46.20605 -118.12638 32567 ft 470 kts 187°
2026-04-25 18:50 46.17361 -118.13257 32911 ft 469 kts 187°
2026-04-25 18:51 46.14126 -118.13874 33253 ft 469 kts 187°
2026-04-25 18:51 46.11943 -118.14290 33501 ft 468 kts 187°
2026-04-25 18:51 46.07672 -118.15103 33901 ft 468 kts 187°
2026-04-25 18:51 46.04437 -118.15718 34146 ft 468 kts 187°
2026-04-25 18:52 46.01212 -118.16330 34404 ft 468 kts 187°
2026-04-25 18:52 45.97987 -118.16943 34664 ft 467 kts 187°
2026-04-25 18:52 45.94761 -118.17554 34866 ft 468 kts 187°
2026-04-25 18:52 45.91538 -118.18163 35156 ft 466 kts 188°
2026-04-25 18:53 45.88334 -118.18768 35488 ft 463 kts 188°
2026-04-25 18:53 45.85138 -118.19372 35653 ft 465 kts 188°
2026-04-25 18:53 45.81922 -118.19979 35803 ft 466 kts 188°
2026-04-25 18:53 45.78710 -118.20583 36048 ft 465 kts 188°
2026-04-25 18:54 45.72297 -118.21787 36508 ft 464 kts 188°
2026-04-25 18:54 45.69099 -118.22387 36683 ft 464 kts 188°
2026-04-25 18:54 45.65899 -118.22987 36916 ft 463 kts 188°
2026-04-25 18:55 45.62697 -118.23587 36962 ft 466 kts 188°
2026-04-25 18:55 45.56269 -118.24789 36962 ft 464 kts 188°
2026-04-25 18:56 45.49895 -118.25977 36985 ft 460 kts 188°
2026-04-25 18:56 45.43554 -118.27156 36992 ft 458 kts 189°
2026-04-25 18:57 45.37253 -118.28326 36974 ft 456 kts 189°
2026-04-25 18:57 45.30962 -118.29492 36980 ft 456 kts 189°
2026-04-25 18:58 45.24716 -118.30646 36971 ft 457 kts 189°
2026-04-25 18:58 45.15224 -118.32396 36962 ft 460 kts 189°
2026-04-25 18:59 45.02479 -118.34736 36972 ft 464 kts 189°
2026-04-25 19:00 44.92887 -118.36787 36964 ft 465 kts 192°
2026-04-25 19:01 44.83348 -118.39314 36954 ft 465 kts 192°
2026-04-25 19:01 44.76974 -118.40956 36945 ft 465 kts 192°
2026-04-25 19:02 44.67444 -118.43353 36937 ft 463 kts 192°
2026-04-25 19:03 44.60038 -118.45203 36940 ft 461 kts 192°
2026-04-25 19:03 44.51639 -118.47297 36939 ft 460 kts 192°
2026-04-25 19:04 44.42189 -118.49649 36921 ft 459 kts 192°
2026-04-25 19:05 44.29611 -118.52766 36925 ft 459 kts 192°
2026-04-25 19:06 44.23327 -118.54318 36919 ft 459 kts 192°
2026-04-25 19:06 44.13933 -118.56633 36924 ft 459 kts 192°
2026-04-25 19:07 44.04495 -118.58951 36917 ft 459 kts 193°
2026-04-25 19:08 43.95071 -118.61257 36916 ft 458 kts 193°
2026-04-25 19:09 43.84629 -118.63804 36900 ft 458 kts 193°
2026-04-25 19:10 43.73104 -118.66604 36912 ft 457 kts 194°
2026-04-25 19:10 43.66881 -118.68113 36913 ft 457 kts 193°
2026-04-25 19:11 43.60616 -118.69629 36905 ft 457 kts 194°
2026-04-25 19:11 43.54352 -118.71140 36906 ft 457 kts 194°
2026-04-25 19:12 43.48091 -118.72647 36890 ft 456 kts 194°
2026-04-25 19:12 43.41835 -118.74151 36903 ft 456 kts 194°
2026-04-25 19:13 43.35560 -118.75541 36899 ft 458 kts 192°
2026-04-25 19:13 43.29221 -118.76533 36902 ft 459 kts 191°
2026-04-25 19:14 43.22864 -118.77448 36902 ft 459 kts 191°
2026-04-25 19:14 43.16510 -118.78396 36877 ft 459 kts 192°
2026-04-25 19:15 43.10168 -118.79370 36890 ft 458 kts 192°
2026-04-25 19:15 43.03837 -118.80350 36893 ft 458 kts 192°
2026-04-25 19:16 42.97513 -118.81328 36897 ft 457 kts 192°
2026-04-25 19:16 42.91188 -118.82304 36888 ft 457 kts 192°
2026-04-25 19:17 42.84911 -118.83269 36881 ft 457 kts 192°
2026-04-25 19:17 42.78587 -118.84239 36876 ft 457 kts 192°
2026-04-25 19:18 42.72282 -118.85203 36863 ft 455 kts 192°
2026-04-25 19:18 42.66009 -118.86161 36863 ft 453 kts 192°
2026-04-25 19:19 42.59755 -118.87115 36874 ft 452 kts 192°
2026-04-25 19:19 42.54565 -118.87905 36861 ft 450 kts 192°
2026-04-25 19:20 42.48349 -118.88849 36859 ft 448 kts 192°
2026-04-25 19:20 42.42159 -118.89787 36857 ft 447 kts 192°
2026-04-25 19:21 42.35989 -118.90721 36839 ft 445 kts 192°
2026-04-25 19:21 42.26826 -118.92104 36846 ft 442 kts 193°
2026-04-25 19:22 42.20714 -118.93025 36820 ft 441 kts 193°
2026-04-25 19:23 42.11589 -118.94395 36842 ft 438 kts 193°
2026-04-25 19:23 42.02499 -118.95758 36833 ft 438 kts 193°
2026-04-25 19:24 41.96437 -118.96665 36839 ft 438 kts 193°
2026-04-25 19:25 41.84303 -118.98473 36826 ft 439 kts 193°
2026-04-25 19:25 41.78216 -118.99379 36822 ft 441 kts 193°
2026-04-25 19:26 41.72116 -119.00283 36816 ft 441 kts 193°
2026-04-25 19:26 41.66006 -119.01187 36817 ft 442 kts 193°
2026-04-25 19:27 41.60922 -119.01936 36816 ft 442 kts 193°
2026-04-25 19:27 41.53817 -119.02985 36804 ft 442 kts 193°
2026-04-25 19:28 41.47706 -119.03884 36817 ft 441 kts 193°
2026-04-25 19:28 41.41611 -119.04779 36830 ft 440 kts 193°
2026-04-25 19:29 41.35537 -119.05669 36812 ft 439 kts 193°
2026-04-25 19:29 41.29494 -119.06551 36810 ft 436 kts 193°
2026-04-25 19:30 41.23474 -119.07432 36805 ft 435 kts 193°
2026-04-25 19:30 41.17462 -119.08309 36804 ft 434 kts 193°
2026-04-25 19:31 41.11514 -119.09174 36806 ft 432 kts 193°
2026-04-25 19:31 41.05548 -119.10041 36808 ft 430 kts 193°
2026-04-25 19:32 40.99596 -119.10904 36813 ft 429 kts 193°
2026-04-25 19:32 40.94659 -119.11620 36814 ft 429 kts 193°
2026-04-25 19:33 40.87718 -119.12624 36814 ft 430 kts 193°
2026-04-25 19:33 40.81776 -119.13481 36816 ft 430 kts 193°
2026-04-25 19:34 40.75808 -119.14341 36812 ft 431 kts 193°
2026-04-25 19:34 40.69840 -119.15198 36797 ft 432 kts 192°
2026-04-25 19:35 40.63860 -119.16056 36806 ft 432 kts 192°
2026-04-25 19:35 40.57881 -119.16912 36805 ft 432 kts 192°
2026-04-25 19:36 40.51940 -119.17760 36803 ft 431 kts 192°
2026-04-25 19:36 40.45977 -119.18610 36800 ft 431 kts 192°
2026-04-25 19:37 40.40019 -119.19459 36802 ft 430 kts 192°
2026-04-25 19:37 40.34084 -119.20303 36783 ft 429 kts 192°
2026-04-25 19:38 40.28162 -119.21144 36795 ft 428 kts 192°
2026-04-25 19:38 40.22252 -119.21982 36807 ft 427 kts 192°
2026-04-25 19:39 40.16337 -119.22798 36805 ft 428 kts 192°
2026-04-25 19:39 40.10409 -119.23536 36790 ft 428 kts 192°
2026-04-25 19:40 40.04478 -119.24264 36789 ft 428 kts 192°
2026-04-25 19:40 39.98541 -119.24995 36787 ft 429 kts 192°
2026-04-25 19:41 39.92608 -119.25729 36771 ft 428 kts 191°
2026-04-25 19:41 39.88675 -119.26219 36789 ft 428 kts 191°
2026-04-25 19:42 39.80740 -119.27208 36780 ft 428 kts 191°
2026-04-25 19:42 39.74823 -119.27942 36778 ft 427 kts 191°
2026-04-25 19:43 39.68947 -119.28670 36778 ft 427 kts 191°
2026-04-25 19:43 39.63006 -119.29403 36773 ft 426 kts 191°
2026-04-25 19:44 39.57149 -119.30125 36775 ft 425 kts 191°
2026-04-25 19:44 39.51272 -119.30849 36759 ft 424 kts 191°
2026-04-25 19:45 39.45399 -119.31574 36768 ft 424 kts 191°
2026-04-25 19:45 39.39528 -119.32293 36777 ft 424 kts 191°
2026-04-25 19:46 39.33658 -119.33011 36781 ft 423 kts 191°
2026-04-25 19:46 39.27785 -119.33729 36785 ft 424 kts 191°
2026-04-25 19:47 39.21907 -119.34447 36786 ft 424 kts 191°
2026-04-25 19:47 39.16072 -119.35152 36789 ft 423 kts 191°
2026-04-25 19:48 39.10220 -119.35874 36769 ft 422 kts 191°
2026-04-25 19:48 39.04373 -119.36585 36790 ft 421 kts 191°
2026-04-25 19:49 39.00465 -119.37054 36792 ft 422 kts 191°
2026-04-25 19:49 38.92657 -119.37999 36792 ft 424 kts 191°
2026-04-25 19:50 38.83841 -119.39065 36785 ft 425 kts 191°
2026-04-25 19:51 38.77954 -119.39775 36770 ft 425 kts 191°
2026-04-25 19:51 38.72052 -119.40485 36779 ft 426 kts 191°
2026-04-25 19:52 38.66151 -119.41194 36772 ft 426 kts 191°
2026-04-25 19:52 38.60254 -119.41901 36776 ft 426 kts 191°
2026-04-25 19:53 38.54398 -119.42602 36770 ft 425 kts 191°
2026-04-25 19:53 38.48509 -119.43306 36765 ft 424 kts 190°
2026-04-25 19:54 38.42629 -119.44008 36779 ft 424 kts 191°
2026-04-25 19:54 38.36755 -119.44709 36784 ft 424 kts 191°
2026-04-25 19:55 38.30890 -119.45405 36779 ft 423 kts 191°
2026-04-25 19:55 38.25070 -119.46097 36805 ft 421 kts 190°
2026-04-25 19:56 38.19226 -119.46790 36798 ft 422 kts 191°
2026-04-25 19:56 38.13381 -119.47496 36777 ft 422 kts 191°
2026-04-25 19:57 38.07539 -119.48187 36810 ft 422 kts 190°
2026-04-25 19:57 38.01701 -119.48864 36832 ft 421 kts 190°
2026-04-25 19:58 37.95861 -119.49552 36849 ft 421 kts 190°
2026-04-25 19:58 37.90023 -119.50227 36843 ft 421 kts 190°
2026-04-25 19:59 37.84244 -119.50941 36853 ft 419 kts 190°
2026-04-25 19:59 37.78437 -119.51614 36855 ft 420 kts 190°
2026-04-25 20:00 37.72626 -119.52278 36859 ft 419 kts 190°
2026-04-25 20:00 37.66826 -119.52956 36869 ft 418 kts 191°
2026-04-25 20:01 37.58150 -119.53957 36888 ft 417 kts 190°
2026-04-25 20:01 37.52368 -119.54641 36877 ft 417 kts 190°
2026-04-25 20:02 37.46587 -119.55316 36877 ft 418 kts 190°
2026-04-25 20:02 37.40798 -119.55987 36889 ft 418 kts 190°
2026-04-25 20:03 37.35003 -119.56659 36909 ft 418 kts 190°
2026-04-25 20:03 37.29205 -119.57330 36903 ft 419 kts 190°
2026-04-25 20:04 37.23390 -119.58002 36917 ft 419 kts 190°
2026-04-25 20:04 37.17618 -119.58668 36905 ft 419 kts 190°
2026-04-25 20:05 37.11790 -119.59113 36910 ft 423 kts 182°
2026-04-25 20:05 37.05943 -119.57806 36920 ft 433 kts 168°
2026-04-25 20:06 37.00210 -119.55452 36921 ft 434 kts 167°
2026-04-25 20:06 36.94467 -119.53047 36909 ft 435 kts 168°
2026-04-25 20:07 36.89687 -119.51075 36909 ft 434 kts 168°
2026-04-25 20:07 36.83962 -119.48745 36916 ft 432 kts 168°
2026-04-25 20:08 36.78257 -119.46435 36923 ft 430 kts 168°
2026-04-25 20:08 36.72572 -119.44139 36923 ft 429 kts 168°
2026-04-25 20:09 36.66901 -119.41850 36930 ft 428 kts 168°
2026-04-25 20:09 36.61221 -119.39562 36929 ft 429 kts 168°
2026-04-25 20:10 36.55535 -119.37275 36947 ft 430 kts 168°
2026-04-25 20:10 36.49820 -119.34980 36936 ft 434 kts 168°
2026-04-25 20:11 36.44011 -119.32654 36938 ft 442 kts 168°
2026-04-25 20:11 36.38151 -119.30304 36936 ft 442 kts 168°
2026-04-25 20:12 36.32288 -119.27957 36942 ft 442 kts 168°
2026-04-25 20:12 36.27422 -119.26012 36943 ft 442 kts 168°
2026-04-25 20:13 36.20625 -119.23300 36940 ft 441 kts 169°
2026-04-25 20:13 36.14778 -119.20973 36941 ft 441 kts 169°
2026-04-25 20:14 36.08938 -119.18653 36945 ft 441 kts 169°
2026-04-25 20:14 36.03093 -119.16334 36918 ft 441 kts 169°
2026-04-25 20:15 35.97256 -119.14021 36932 ft 441 kts 169°
2026-04-25 20:15 35.91416 -119.11711 36946 ft 441 kts 169°
2026-04-25 20:16 35.85578 -119.09405 36938 ft 441 kts 169°
2026-04-25 20:16 35.79721 -119.07096 36929 ft 441 kts 169°
2026-04-25 20:17 35.73878 -119.04794 36928 ft 440 kts 169°
2026-04-25 20:17 35.68040 -119.02499 36925 ft 440 kts 169°
2026-04-25 20:18 35.62208 -119.00210 36909 ft 440 kts 170°
2026-04-25 20:18 35.56387 -118.97928 36917 ft 439 kts 170°
2026-04-25 20:19 35.50597 -118.95663 36902 ft 439 kts 170°
2026-04-25 20:19 35.44773 -118.93388 36911 ft 439 kts 170°
2026-04-25 20:20 35.38949 -118.91114 36906 ft 439 kts 170°
2026-04-25 20:20 35.33126 -118.88846 36922 ft 439 kts 170°
2026-04-25 20:21 35.27299 -118.86581 36917 ft 440 kts 170°
2026-04-25 20:21 35.21469 -118.84316 36907 ft 439 kts 171°
2026-04-25 20:22 35.16595 -118.82425 36900 ft 439 kts 171°
2026-04-25 20:22 35.09831 -118.79806 36910 ft 438 kts 171°
2026-04-25 20:23 35.04018 -118.77558 36922 ft 438 kts 171°
2026-04-25 20:23 34.98201 -118.75312 36907 ft 438 kts 171°
2026-04-25 20:24 34.92390 -118.73073 36900 ft 438 kts 171°
2026-04-25 20:24 34.86577 -118.70834 36903 ft 438 kts 171°
2026-04-25 20:25 34.80763 -118.68598 36897 ft 438 kts 171°
2026-04-25 20:25 34.74948 -118.66367 36888 ft 437 kts 171°
2026-04-25 20:26 34.69178 -118.64159 36909 ft 438 kts 172°
2026-04-25 20:26 34.63368 -118.61920 36914 ft 439 kts 171°
2026-04-25 20:27 34.57606 -118.59366 36902 ft 451 kts 161°
2026-04-25 20:27 34.52146 -118.55493 36914 ft 456 kts 159°
2026-04-25 20:28 34.46721 -118.51526 36931 ft 455 kts 159°
2026-04-25 20:28 34.41284 -118.47607 36955 ft 454 kts 159°
2026-04-25 20:29 34.35848 -118.43734 36982 ft 454 kts 159°
2026-04-25 20:29 34.30383 -118.39857 36978 ft 455 kts 160°
2026-04-25 20:30 34.24910 -118.35986 36966 ft 456 kts 160°
2026-04-25 20:30 34.19436 -118.32114 36970 ft 455 kts 160°
2026-04-25 20:31 34.13960 -118.28246 36972 ft 455 kts 160°
2026-04-25 20:31 34.08502 -118.24381 36976 ft 455 kts 160°
2026-04-25 20:32 34.03024 -118.20536 36958 ft 457 kts 160°
2026-04-25 20:32 33.97567 -118.16702 36977 ft 457 kts 160°
2026-04-25 20:33 33.92042 -118.12820 36985 ft 457 kts 160°
2026-04-25 20:33 33.87473 -118.09615 36946 ft 457 kts 160°
2026-04-25 20:34 33.81071 -118.05209 36937 ft 454 kts 162°
2026-04-25 20:34 33.78294 -118.03380 36485 ft 460 kts 162°
2026-04-25 20:34 33.75494 -118.01547 35994 ft 454 kts 162°
2026-04-25 20:35 33.72714 -117.99724 35147 ft 457 kts 161°
2026-04-25 20:35 33.69927 -117.97891 34495 ft 455 kts 161°
2026-04-25 20:35 33.67147 -117.96058 33447 ft 459 kts 161°
2026-04-25 20:35 33.64344 -117.94210 32504 ft 460 kts 160°
2026-04-25 20:36 33.61542 -117.92359 31611 ft 460 kts 160°
2026-04-25 20:36 33.58733 -117.90505 30715 ft 461 kts 160°
2026-04-25 20:36 33.55953 -117.88668 30367 ft 449 kts 160°
2026-04-25 20:36 33.53188 -117.86833 29032 ft 460 kts 159°
2026-04-25 20:37 33.50381 -117.84928 27732 ft 468 kts 158°
2026-04-25 20:37 33.47543 -117.82985 26516 ft 471 kts 158°
2026-04-25 20:37 33.44705 -117.80994 25402 ft 475 kts 154°
2026-04-25 20:37 33.42056 -117.78627 24586 ft 477 kts 146°
2026-04-25 20:38 33.39602 -117.75976 23752 ft 474 kts 144°
2026-04-25 20:38 33.37183 -117.73312 22743 ft 471 kts 144°
2026-04-25 20:38 33.34788 -117.70688 21888 ft 464 kts 144°
2026-04-25 20:38 33.32396 -117.68104 21011 ft 459 kts 144°
2026-04-25 20:39 33.30037 -117.65579 20044 ft 455 kts 144°
2026-04-25 20:39 33.27691 -117.63083 19396 ft 445 kts 144°
2026-04-25 20:39 33.25379 -117.60625 18384 ft 446 kts 144°
2026-04-25 20:39 33.24595 -117.59793 18169 ft 443 kts 144°
2026-04-25 20:40 33.20807 -117.55799 16784 ft 432 kts 145°
2026-04-25 20:40 33.18573 -117.53450 16147 ft 423 kts 145°
2026-04-25 20:40 33.16384 -117.51149 15566 ft 416 kts 145°
2026-04-25 20:40 33.14227 -117.48882 14888 ft 410 kts 146°
2026-04-25 20:41 33.12043 -117.46816 14140 ft 400 kts 151°
2026-04-25 20:41 33.09784 -117.44965 13086 ft 390 kts 153°
2026-04-25 20:41 33.07515 -117.43144 11938 ft 386 kts 152°
2026-04-25 20:41 33.05344 -117.41373 10853 ft 381 kts 150°
2026-04-25 20:42 33.03230 -117.39611 10757 ft 359 kts 150°
2026-04-25 20:42 33.01229 -117.37927 10572 ft 344 kts 150°
2026-04-25 20:42 32.99312 -117.36314 10432 ft 330 kts 150°
2026-04-25 20:42 32.97479 -117.34776 10291 ft 316 kts 150°
2026-04-25 20:43 32.95714 -117.33297 10176 ft 304 kts 150°
2026-04-25 20:43 32.94017 -117.31876 10060 ft 292 kts 150°
2026-04-25 20:43 32.92383 -117.30508 9928 ft 282 kts 150°
2026-04-25 20:43 32.90790 -117.29180 9616 ft 278 kts 150°
2026-04-25 20:44 32.89218 -117.27876 9315 ft 274 kts 150°
2026-04-25 20:44 32.87660 -117.26583 8983 ft 272 kts 150°
2026-04-25 20:44 32.86107 -117.25295 8664 ft 272 kts 149°
2026-04-25 20:44 32.84585 -117.24030 8587 ft 260 kts 149°
2026-04-25 20:45 32.83144 -117.22827 8470 ft 246 kts 149°
2026-04-25 20:45 32.81741 -117.21600 7834 ft 255 kts 140°
2026-04-25 20:45 32.80839 -117.19813 7469 ft 254 kts 109°
2026-04-25 20:45 32.80384 -117.17819 7132 ft 247 kts 106°
2026-04-25 20:46 32.79965 -117.15863 6822 ft 241 kts 107°
2026-04-25 20:46 32.79551 -117.13946 6540 ft 238 kts 107°
2026-04-25 20:46 32.79132 -117.12044 6303 ft 236 kts 105°
2026-04-25 20:46 32.78714 -117.10158 6193 ft 242 kts 106°
2026-04-25 20:47 32.78254 -117.08101 6098 ft 273 kts 106°
2026-04-25 20:47 32.77758 -117.05899 5928 ft 278 kts 107°
2026-04-25 20:47 32.77226 -117.03682 5664 ft 278 kts 107°
2026-04-25 20:47 32.76692 -117.01500 5443 ft 272 kts 107°
2026-04-25 20:48 32.76170 -116.99363 5223 ft 267 kts 108°
2026-04-25 20:48 32.75513 -116.97305 4927 ft 267 kts 123°
2026-04-25 20:48 32.74617 -116.95384 4758 ft 265 kts 108°
2026-04-25 20:48 32.74242 -116.93273 4908 ft 262 kts 101°
2026-04-25 20:49 32.73936 -116.91156 4943 ft 267 kts 101°
2026-04-25 20:49 32.73623 -116.88984 4957 ft 265 kts 102°
2026-04-25 20:49 32.73309 -116.86804 4974 ft 269 kts 101°
2026-04-25 20:49 32.72994 -116.84609 4963 ft 270 kts 104°
2026-04-25 20:50 32.72255 -116.82570 4985 ft 271 kts 129°
2026-04-25 20:50 32.70839 -116.81218 4963 ft 253 kts 160°
2026-04-25 20:50 32.69214 -116.80895 4952 ft 226 kts 186°
2026-04-25 20:50 32.67725 -116.81094 4953 ft 205 kts 188°
2026-04-25 20:51 32.66382 -116.81299 4952 ft 184 kts 191°
2026-04-25 20:51 32.65182 -116.81467 4914 ft 163 kts 193°
2026-04-25 20:51 32.64267 -116.82154 4973 ft 171 kts 245°
2026-04-25 20:51 32.64117 -116.83679 4995 ft 198 kts 282°
2026-04-25 20:52 32.64524 -116.85209 4967 ft 191 kts 287°
2026-04-25 20:52 32.64671 -116.85710 4982 ft 189 kts 288°
2026-04-25 20:52 32.65256 -116.87707 4983 ft 195 kts 287°
2026-04-25 20:52 32.65701 -116.89247 5008 ft 199 kts 287°
2026-04-25 20:53 32.66152 -116.90826 4791 ft 205 kts 288°
2026-04-25 20:53 32.66609 -116.92438 4540 ft 205 kts 287°
2026-04-25 20:53 32.67051 -116.94015 4279 ft 198 kts 286°
2026-04-25 20:53 32.67478 -116.95549 4017 ft 193 kts 286°
2026-04-25 20:54 32.67895 -116.97053 3763 ft 191 kts 287°
2026-04-25 20:54 32.68340 -116.98540 3507 ft 190 kts 287°
2026-04-25 20:54 32.68745 -116.99998 3444 ft 185 kts 284°
2026-04-25 20:54 32.69121 -117.01476 3322 ft 190 kts 283°
2026-04-25 20:55 32.69495 -117.02997 3009 ft 192 kts 283°
2026-04-25 20:55 32.69863 -117.04518 2729 ft 192 kts 284°
2026-04-25 20:55 32.70228 -117.06029 2427 ft 187 kts 284°
2026-04-25 20:55 32.70584 -117.07497 2131 ft 184 kts 284°
2026-04-25 20:56 32.70937 -117.08963 1867 ft 182 kts 285°
2026-04-25 20:56 32.71272 -117.10348 1594 ft 168 kts 284°
2026-04-25 20:56 32.71577 -117.11609 1377 ft 149 kts 282°
2026-04-25 20:56 32.71848 -117.12737 1104 ft 134 kts 284°
2026-04-25 20:57 32.72092 -117.13761 907 ft 128 kts 285°
2026-04-25 20:57 32.72343 -117.14799 757 ft 133 kts 288°
2026-04-25 20:57 32.72607 -117.15864 537 ft 137 kts 284°
2026-04-25 20:57 32.72875 -117.16940 303 ft 136 kts 283°
2026-04-25 20:58 32.73130 -117.18029 44 ft 136 kts 282°
2026-04-25 20:58 32.73361 -117.18986 25 ft 100 kts 287°
2026-04-25 20:58 32.73497 -117.19545 24 ft 39 kts 286°
2026-04-25 20:58 32.73520 -117.19800 24 ft 26 kts 248°
2026-04-25 20:59 32.73475 -117.19854 22 ft 0 kts 144°
2026-04-25 20:59 32.73473 -117.19851 22 ft 1 kts 132°
2026-04-25 21:00 32.73471 -117.19846 22 ft 0 kts 122°